Location: Long Geng
(2.6167°N, 114.1333°E)
Time: 00:46:27
(UTC+00:00)

Milstar 3 - Pass Details

Date: 14 May 2021
Orbit: 1089 x 5155 km, 28.3° (Epoch: 08 May)

Event Time Altitude Azimuth Distance (km) Brightness Sun altitude
Exits shadow 19:39:41 69° 83° (E) 1,306 3.1 -36.4°
Drops below altitude 10° 19:47:53 10° 116° (ESE) 3,952 6.0 -34.6°
Sets 19:51:56 0° 117° (ESE) 5,421 6.8 -33.6°
